Вернуться в каталог

STARLINK-34737

АктивенСвязьSSO
NORAD 64933·PAYLOAD·🇺🇸 United States

Запущен Jul 26, 2025 с Vandenberg Space Force Base

Loading…

Ближайшие Пролёты (ближайшие 24 часа)

TLE

СвежийSource: CelesTrak SupGP

Эпоха: Sep 15, 2026, 02:57 UTC

1 64933C 25158B   26258.12340278  .00005111  00000+0  15862-3 0  2586
2 64933  97.2846 116.5173 0001761  96.2944 263.4227 15.33442499    17

Отслеживайте STARLINK-34737 в реальном времени с AllMySat

Download on the App Store